Voltar ao catálogo

PRAETORIAN SDA_616

AtivoMilitarPO
NORAD 65579·PAYLOAD·🇺🇸 United States

Lançado Sep 10, 2025 de Vandenberg Space Force Base

Loading…

Próximas Passagens (próximas 24 horas)

TLE

AtualizadoSource: Space-Track

Época: Sep 13, 2026, 19:21 UTC

1 65579U 25203Q   26256.80676907  .00000104  00000-0  84455-4 0  9993
2 65579  81.3040 289.1699 0004868 332.2824  27.8072 13.83274946 50934

Acompanhe PRAETORIAN SDA_616 em tempo real com AllMySat

Download on the App Store